Location: Fort Wayne
(41.1310°N, 85.1290°W)
Time: 04:54:49
(UTC-05:00)

BREEZE-M DEB (TANK) - Visible Passes

Search period start: 08 December 2016 00:00
Search period end: 18 December 2016 00:00
Orbit: 275 x 13308 km, 49.6° (Epoch: 07 December)

Date Brightness Start Highest point End Pass type
(mag) Time Alt. Az. Time Alt. Az. Time Alt. Az.
08 Dec 8.3 03:37:43 41° SW 04:38:32 88° NW 06:08:19 10° ENE visible
09 Dec 8.4 00:33:22 41° SE 01:01:26 48° E 02:34:36 10° NE visible
09 Dec 8.4 04:44:29 30° WSW 06:11:55 79° NNW 07:19:26 10° E visible
10 Dec 8.3 01:39:55 55° SSE 02:08:41 67° ESE 03:50:05 10° ENE visible
10 Dec 8.6 05:51:01 18° W 07:45:15 78° N 08:29:08 10° E visible
10 Dec 8.8 22:35:13 19° E 23:00:53 22° ENE 00:01:49 10° NE visible
11 Dec 8.2 02:46:15 58° SSW 03:23:55 84° SE 05:03:43 10° ENE visible
11 Dec 8.4 07:02:53 10° W 09:07:30 85° NNE 09:37:22 10° ESE visible
11 Dec 8.6 23:41:23 36° ESE 23:59:37 38° E 01:25:14 10° NE visible
12 Dec 8.3 03:52:24 48° WSW 04:50:23 83° NNW 06:15:53 10° ENE visible
13 Dec 8.4 00:47:22 53° SE 01:03:05 56° ESE 02:42:50 10° NE visible
13 Dec 8.5 04:58:21 34° W 06:26:59 77° N 07:26:33 10° E visible
13 Dec 9.0 21:42:13 12° E 22:03:06 14° ENE 22:38:47 10° NE visible
14 Dec 8.3 01:53:10 67° SSE 02:13:07 74° ESE 03:57:54 10° ENE visible
14 Dec 8.7 06:04:09 20° W 07:56:46 80° NNE 08:35:40 10° ESE visible
14 Dec 8.8 22:47:53 28° E 22:59:27 29° E 00:12:57 10° NE visible
15 Dec 8.3 02:58:49 64° SW 03:32:18 90° SE 05:11:14 10° ENE visible
15 Dec 8.3 07:13:29 10° WNW 09:15:34 89° SW 09:43:16 10° SE visible
15 Dec 8.6 23:53:24 45° ESE 23:59:47 45° E 01:33:46 10° NE visible
16 Dec 8.4 04:04:18 50° WSW 05:04:05 80° NNW 06:23:00 10° E visible
17 Dec 8.4 00:58:45 63° ESE 01:05:32 64° ESE 02:50:37 10° ENE visible
17 Dec 8.6 05:09:39 35° W 06:40:53 77° N 07:33:08 10° E visible
17 Dec 9.0 21:53:07 19° E 22:00:36 19° ENE 22:55:39 10° NE visible
